星链-32350 (STARLINK-32350)

导读

STARLINK-32350是美国太空探索技术公司SpaceX星链星座的卫星,于2024年9月13日发射入轨,归属第二代星链卫星组网,承担全球卫星互联网通信服务覆盖任务。星链计划通过批量发射低轨卫星,搭建低延迟、广覆盖的天基通信网络,该卫星是星链系统扩容组网的组成部分。

基本信息
目录编号:
61063
目录名称:
STARLINK-32350
国际标识:
2024-164P
轨道中心:
EARTH
卫星名称:
星链-32350
卫星全名:
星链-32350 (STARLINK-32350)
卫星状态:
在轨 (已飞行721 天)
发射日期:
2024-09-13 UTC
国别 :
美国 (US)
星等 :
--
轨道信息
数据来源 国际轨道数据 AOE轨道数据
星历时间 2026-09-03T14:31:42+0800
23小时前
查看轨道信息
2026-08-31T16:00:00+0800
3天前
查看轨道信息
半长轴 6848.908km 6848.853km
偏心率 0.0000959 0.0001499
轨道倾角 53.161° 53.161°
近地点辐角 67.852° 65.285°
升交点赤经 345.033° 358.713°
平近点角 292.258° 281.530°
近地点 470.114km 469.689km
远地点 471.428km 471.743km
周期 94.014分钟 94.013分钟
每日圈数 15.316898 15.317083
详细信息
固有亮度:
5
最大亮度:
2.5
卫星平台:
Starlink V1.0
覆盖范围:
全球
运营商:
太空探索技术公司
运营商所在国:
美国
制造商(研发单位):
太空探索技术公司
制造商所在国:
美国
使用方式:
暂无
卫星简介
Starlink 计划是 SpaceX 推出的全球卫星互联网项目,通过发射低轨道卫星,为全球尤其是偏远地区提供高速、低延迟的互联网服务。自 2019 年起,Starlink 已部署数千颗卫星,旨在缩小全球数字鸿沟,推动互联网普及。该项目还为军事、航空等行业提供通信支持,带来广泛经济效益。
2D轨道图
3D轨道图
轨道高度分析图
轨道倾角分析图
轨道综合分析图
查看轨道综合分析图
交会数据列表
事件ID 空间交会对象 最接近时刻(TCA) 交会距离 交会风险概率(CRP) 交会风险指数(CRI) 操作
CDM_260904-015105-315606-106321
2026-09-04T
01:51:54+0000
2.078 km
极远距离
1.946928E-6 低风险 0.41
CDM_260830-173406-106306-942821
2026-08-30T
17:34:42+0000
2.635 km
极远距离
1.423668E-6 低风险 0.38
CDM_260827-181406-106306-797921
2026-08-27T
18:14:26+0000
2.872 km
极远距离
1.33934E-6 低风险 0.38
CDM_260905-060006-106306-932921
2026-09-05T
06:00:49+0000
2.922 km
极远距离
1.029154E-6 低风险 0.35
CDM_260904-171905-198806-106321
2026-09-04T
17:19:46+0000
2.263 km
极远距离
9.148298E-7 极低风险 0.34
CDM_260904-125306-106306-756221
2026-09-04T
12:53:07+0000
2.936 km
极远距离
8.931821E-7 极低风险 0.34